Simultaneous Nadir Overpasses (SNOs) Predictions

Prediction of SNOs between GOES-14 and NOAA-20 Satellite Orbit:

Table of predicted SNOs for the next 14.0 days since TLE Epoch: 3/30/2024
Index Date Time (GOES-14) GOES-14 Lat,Lon NOAA-20 Lat,Lon Distance(km) Time Diff (sec)
1 03/30/2024 08:54:22 0.15,-108.49 0.91,-111.74 371.37 80
2 03/31/2024 08:31:17 0.16,-108.49 -0.24,-106.82 191.18 80
3 04/01/2024 20:50:37 -0.16,-108.51 -0.84,-111.48 338.85 80
4 04/02/2024 20:32:51 -0.16,-108.52 0.26,-106.55 224.17 80
5 04/04/2024 08:52:06 0.17,-108.50 0.78,-111.20 308.48 80
6 04/05/2024 08:29:01 0.17,-108.49 -0.32,-106.26 254.05 80
7 04/06/2024 20:48:20 -0.17,-108.51 -0.71,-110.94 276.04 80
8 04/07/2024 20:30:35 -0.17,-108.52 0.40,-106.00 287.18 80
9 04/09/2024 08:49:50 0.17,-108.50 0.65,-110.65 244.97 80
10 04/10/2024 08:26:45 0.17,-108.50 -0.46,-105.72 317.61 80
11 04/11/2024 20:46:03 -0.17,-108.51 -0.59,-110.38 212.97 80
12 04/12/2024 20:28:18 -0.17,-108.52 0.53,-105.45 350.11 80
